Weather History for KLGU - March, 2013

Change the Weather History Date:

Sunday, March 31, 2013

  Actual Average Record
Temperature  
Mean Temperature 47 °F -  
Max Temperature 66 °F 53 °F 75 °F (2012)
Min Temperature 28 °F 27 °F 16 °F (1985)
Degree Days  
Heating Degree Days 18    
Moisture  
Dew Point 26 °F    
Average Humidity 49    
Maximum Humidity 85    
Minimum Humidity 16    
Precipitation  
Precipitation 0.00 in - - ()
Sea Level Pressure  
Sea Level Pressure 30.02 in    
Wind  
Wind Speed 3 mph (NW)    
Max Wind Speed 8 mph    
Max Gust Speed -    
Visibility 10 miles    
Events      
Averages and records for this station are not official NWS values.
T = Trace of Precipitation, MM = Missing Value Source: NWS Daily Summary

Daily Weather History Graph

Daily Weather History Graph

Search for Another Location

Airport or City:

Trip Planner

Search our weather history database for the weather conditions in past years. The results will help you decide how hot, cold, wet, or windy it might be!

Date:

Astronomy

Mar. 31, 2013 Rise Set
Actual Time 7:11 AM MDT 7:52 PM MDT
Civil Twilight 6:43 AM MDT 8:20 PM MDT
Nautical Twilight 6:10 AM MDT 8:53 PM MDT
Astronomical Twilight 5:35 AM MDT 9:27 PM MDT
Moon 12:05 AM MDT (3/31) 9:58 AM MDT (3/31)
Length of Visible Light 13h 36m
Length of Day
12h 40m
Waning Gibbous, 77% of the Moon is Illuminated
Mar 31
Waning Gibbous
Apr 2
Last Quarter
Apr 10
New
Apr 18
First Quarter
Apr 25
Full

Hourly Weather History & Observations

Time (MDT) Temp. Windchill Dew Point Humidity Pressure Visibility Wind Dir Wind Speed Gust Speed Precip Events Conditions
12:51 AM 42.1 °F 37.1 °F 30.0 °F 62% 30.12 in 10.0 mi South 8.1 mph - N/A   Clear
1:51 AM 36.0 °F - 28.0 °F 73% 30.12 in 10.0 mi Calm Calm - N/A   Clear
2:51 AM 35.1 °F 32.2 °F 28.0 °F 76% 30.11 in 10.0 mi ENE 3.5 mph - N/A   Clear
3:51 AM 34.0 °F - 27.0 °F 75% 30.10 in 10.0 mi Calm Calm - N/A   Clear
4:51 AM 35.1 °F - 28.0 °F 76% 30.09 in 10.0 mi Calm Calm - N/A   Clear
5:51 AM 30.9 °F - 26.1 °F 82% 30.09 in 10.0 mi Calm Calm - N/A   Clear
6:51 AM 30.0 °F 26.5 °F 26.1 °F 85% 30.10 in 10.0 mi NNW 3.5 mph - N/A   Clear
7:51 AM 28.9 °F - 25.0 °F 85% 30.13 in 10.0 mi Calm Calm - N/A   Clear
8:51 AM 36.0 °F 33.3 °F 28.0 °F 73% 30.13 in 10.0 mi NNW 3.5 mph - N/A   Clear
9:51 AM 43.0 °F 41.3 °F 27.0 °F 53% 30.12 in 10.0 mi North 3.5 mph - N/A   Clear
11:51 AM 54.0 °F - 28.9 °F 38% 30.06 in 10.0 mi Variable 3.5 mph - N/A   Clear
12:51 PM 57.9 °F - 28.9 °F 33% 30.05 in 10.0 mi South 3.5 mph - N/A   Clear
1:51 PM 62.1 °F - 26.1 °F 25% 30.03 in 10.0 mi Calm Calm - N/A   Clear
2:51 PM 63.0 °F - 28.0 °F 27% 30.00 in 10.0 mi WNW 4.6 mph - N/A   Clear
3:51 PM 64.9 °F - 27.0 °F 24% 29.96 in 10.0 mi WNW 3.5 mph - N/A   Clear
4:51 PM 64.9 °F - 26.1 °F 23% 29.93 in 10.0 mi NNW 4.6 mph - N/A   Clear
5:51 PM 66.0 °F - 21.9 °F 19% 29.91 in 10.0 mi Calm Calm - N/A   Clear
6:51 PM 66.9 °F - 19.0 °F 16% 29.89 in 10.0 mi Calm Calm - N/A   Clear
7:51 PM 62.1 °F - 19.9 °F 20% 29.89 in 10.0 mi Calm Calm - N/A   Clear
8:51 PM 55.9 °F - 25.0 °F 30% 29.91 in 10.0 mi SE 3.5 mph - N/A   Clear
9:51 PM 52.0 °F - 26.1 °F 37% 29.90 in 10.0 mi SE 4.6 mph - N/A   Clear
10:51 PM 46.0 °F - 30.9 °F 56% 29.91 in 10.0 mi Calm Calm - N/A   Clear
11:51 PM 46.9 °F - 28.0 °F 48% 29.88 in 10.0 mi Calm Calm - N/A   Clear